�������l�o���
Date,Time,MP-1(��Sv/h),MP-2(��Sv/h),MP-3(��Sv/h),MP-4(��Sv/h),MP-5(��Sv/h),MP-6(��Sv/h),MP-7(��Sv/h),MP-8(��Sv/h),����,����(m/s),���J
2023/07/28,00:00,0.544,0.828,0.501,0.998,0.738,0.326,0.579,0.536,��쐼,1.5,��
2023/07/28,00:10,0.545,0.826,0.502,0.998,0.739,0.326,0.576,0.536,���쐼,1.4,��
2023/07/28,00:20,0.545,0.828,0.503,0.999,0.737,0.326,0.577,0.536,�쐼,1.5,��
2023/07/28,00:30,0.546,0.826,0.503,0.997,0.738,0.326,0.578,0.535,�쐼,2.0,��
2023/07/28,00:40,0.545,0.825,0.502,0.995,0.738,0.326,0.578,0.533,��쐼,1.7,��
2023/07/28,00:50,0.546,0.828,0.502,0.998,0.740,0.327,0.578,0.535,��쐼,1.7,��
2023/07/28,01:00,0.546,0.826,0.502,0.999,0.738,0.325,0.578,0.535,��쐼,1.5,��
2023/07/28,01:10,0.547,0.826,0.502,0.997,0.739,0.326,0.578,0.537,���쐼,1.9,��
2023/07/28,01:20,0.546,0.829,0.501,0.997,0.739,0.325,0.577,0.537,�쐼,2.0,��
2023/07/28,01:30,0.546,0.826,0.501,0.996,0.740,0.325,0.579,0.536,�쐼,1.7,��
2023/07/28,01:40,0.545,0.830,0.501,0.996,0.738,0.328,0.577,0.536,�쐼,1.5,��
2023/07/28,01:50,0.544,0.828,0.502,0.999,0.740,0.327,0.578,0.536,��쐼,0.8,��
2023/07/28,02:00,0.545,0.828,0.502,0.996,0.740,0.325,0.578,0.536,��쐼,0.9,��
2023/07/28,02:10,0.547,0.829,0.502,0.996,0.739,0.327,0.577,0.536,���쐼,0.8,��
2023/07/28,02:20,0.545,0.829,0.503,0.997,0.740,0.325,0.579,0.536,�k�k��,0.6,��
2023/07/28,02:30,0.546,0.826,0.502,0.996,0.740,0.326,0.579,0.537,�k�k��,1.4,��
2023/07/28,02:40,0.546,0.828,0.501,0.997,0.739,0.326,0.578,0.535,�k,2.2,��
2023/07/28,02:50,0.545,0.829,0.502,0.997,0.739,0.327,0.579,0.537,�k��,2.9,��
2023/07/28,03:00,0.545,0.828,0.502,0.997,0.738,0.325,0.578,0.536,�k�k��,4.0,��
2023/07/28,03:10,0.545,0.828,0.502,0.999,0.740,0.326,0.579,0.538,�k�k��,3.3,��
2023/07/28,03:20,0.545,0.829,0.503,0.999,0.739,0.325,0.578,0.535,�k�k��,2.6,��
2023/07/28,03:30,0.547,0.829,0.503,1.001,0.739,0.326,0.579,0.536,�k�k��,2.6,��
2023/07/28,03:40,0.545,0.828,0.502,0.998,0.738,0.326,0.577,0.536,�k�k��,2.3,��
2023/07/28,03:50,0.547,0.829,0.503,0.998,0.738,0.326,0.577,0.538,�k�k��,2.2,��
2023/07/28,04:00,0.546,0.827,0.502,0.999,0.736,0.326,0.577,0.536,�k�k��,2.6,��
2023/07/28,04:10,0.544,0.829,0.502,0.997,0.740,0.327,0.577,0.534,�k,3.0,��
2023/07/28,04:20,0.545,0.828,0.500,0.999,0.739,0.327,0.578,0.536,�k,2.8,��
2023/07/28,04:30,0.546,0.828,0.502,0.997,0.740,0.326,0.577,0.536,�k��,1.7,��
2023/07/28,04:40,0.545,0.828,0.501,0.998,0.739,0.326,0.576,0.537,���k��,1.5,��
2023/07/28,04:50,0.545,0.828,0.504,0.998,0.739,0.325,0.577,0.536,��,1.7,��
2023/07/28,05:00,0.543,0.829,0.504,0.999,0.736,0.326,0.578,0.536,���쐼,1.5,��
2023/07/28,05:10,0.544,0.826,0.501,1.000,0.739,0.326,0.577,0.536,�쐼,1.7,��
2023/07/28,05:20,0.544,0.828,0.502,0.999,0.737,0.326,0.577,0.537,���쐼,1.4,��
2023/07/28,05:30,0.546,0.829,0.500,0.999,0.738,0.327,0.577,0.535,���쐼,0.9,��
2023/07/28,05:40,0.546,0.828,0.503,1.000,0.739,0.327,0.577,0.536,���k��,1.4,��
2023/07/28,05:50,0.544,0.826,0.501,0.996,0.738,0.326,0.580,0.536,��,1.4,��
2023/07/28,06:00,0.546,0.827,0.502,0.998,0.736,0.326,0.576,0.535,���k��,1.5,��
2023/07/28,06:10,0.543,0.829,0.501,0.998,0.737,0.327,0.578,0.536,�k��,1.5,��
2023/07/28,06:20,0.546,0.827,0.501,0.999,0.739,0.327,0.578,0.536,���k��,2.3,��
2023/07/28,06:30,0.543,0.826,0.501,0.997,0.736,0.326,0.578,0.535,���k��,1.2,��
2023/07/28,06:40,0.544,0.826,0.502,0.995,0.738,0.326,0.579,0.536,���k��,1.2,��
2023/07/28,06:50,0.542,0.826,0.502,0.999,0.736,0.325,0.577,0.537,���k��,2.0,��
2023/07/28,07:00,0.544,0.827,0.504,0.999,0.737,0.328,0.577,0.536,�k��,1.4,��
2023/07/28,07:10,0.543,0.827,0.502,0.997,0.736,0.325,0.578,0.537,�k,0.8,��
2023/07/28,07:20,0.543,0.826,0.502,0.999,0.737,0.326,0.578,0.537,�k�k��,1.1,��
2023/07/28,07:30,0.542,0.827,0.503,0.997,0.736,0.326,0.580,0.538,-,CALM,��
2023/07/28,07:40,0.544,0.828,0.502,0.998,0.736,0.325,0.579,0.536,���쓌,1.1,��
2023/07/28,07:50,0.543,0.826,0.502,1.002,0.737,0.326,0.580,0.536,��,0.9,��
2023/07/28,08:00,0.543,0.826,0.503,0.999,0.738,0.326,0.579,0.536,���k��,0.8,��
2023/07/28,08:10,0.542,0.827,0.502,0.999,0.737,0.325,0.580,0.536,���k��,1.1,��
2023/07/28,08:20,0.544,0.825,0.501,0.996,0.738,0.324,0.580,0.536,���k��,1.4,��
2023/07/28,08:30,0.543,0.827,0.502,0.998,0.738,0.325,0.578,0.535,���k��,1.4,��
2023/07/28,08:40,0.545,0.827,0.502,1.000,0.738,0.325,0.579,0.536,���쓌,2.2,��
2023/07/28,08:50,0.543,0.828,0.501,1.000,0.738,0.325,0.580,0.534,���k��,2.3,��
2023/07/28,09:00,0.542,0.825,0.500,1.000,0.739,0.326,0.580,0.536,��,2.6,��
2023/07/28,09:10,0.543,0.827,0.501,1.000,0.739,0.326,0.580,0.535,���쓌,2.3,��
2023/07/28,09:20,0.544,0.828,0.502,1.000,0.742,0.326,0.580,0.536,��,1.9,��
2023/07/28,09:30,0.543,0.827,0.502,1.000,0.740,0.325,0.579,0.537,���쓌,2.2,��
2023/07/28,09:40,0.546,0.832,0.504,1.001,0.741,0.325,0.580,0.537,���k��,2.3,��
2023/07/28,09:50,0.546,0.831,0.504,1.001,0.739,0.325,0.579,0.537,��,1.9,��
2023/07/28,10:00,0.543,0.830,0.504,1.000,0.743,0.325,0.579,0.537,��,2.6,��
2023/07/28,10:10,0.546,0.831,0.503,0.999,0.739,0.326,0.579,0.537,���쓌,2.5,��
2023/07/28,10:20,0.545,0.832,0.504,1.000,0.741,0.329,0.579,0.536,�쓌,2.6,��
2023/07/28,10:30,0.543,0.830,0.503,1.003,0.742,0.326,0.577,0.536,�쓌,3.1,��
2023/07/28,10:40,0.546,0.832,0.502,1.002,0.742,0.326,0.577,0.537,���쓌,2.3,��
2023/07/28,10:50,0.547,0.831,0.504,1.001,0.742,0.326,0.577,0.537,�쓌,3.0,��
2023/07/28,11:00,0.546,0.833,0.504,1.002,0.739,0.326,0.577,0.540,���쓌,2.6,��
2023/07/28,11:10,0.547,0.832,0.504,1.003,0.743,0.327,0.577,0.540,�쓌,2.6,��
2023/07/28,11:20,0.546,0.831,0.504,1.000,0.741,0.326,0.578,0.540,���쓌,2.3,��
2023/07/28,11:30,0.548,0.832,0.504,1.000,0.741,0.327,0.577,0.540,���쓌,2.3,��
2023/07/28,11:40,0.548,0.832,0.503,0.997,0.741,0.325,0.579,0.540,��,2.0,��
2023/07/28,11:50,0.548,0.830,0.504,1.000,0.741,0.326,0.578,0.539,�쓌,2.9,��
2023/07/28,12:00,0.548,0.830,0.506,1.003,0.743,0.326,0.577,0.540,�쓌,4.2,��
2023/07/28,12:10,0.548,0.830,0.505,1.001,0.740,0.325,0.580,0.541,���쓌,4.2,��
2023/07/28,12:20,0.547,0.832,0.506,1.001,0.740,0.326,0.579,0.540,���쓌,3.9,��
2023/07/28,12:30,0.549,0.831,0.504,1.000,0.743,0.325,0.579,0.540,��쓌,4.3,��
2023/07/28,12:40,0.549,0.831,0.504,0.999,0.742,0.325,0.576,0.539,��쓌,5.7,��
2023/07/28,12:50,0.549,0.830,0.503,0.999,0.741,0.326,0.578,0.539,��쓌,5.9,��
2023/07/28,13:00,0.547,0.830,0.504,1.000,0.740,0.326,0.579,0.540,��쓌,5.7,��
2023/07/28,13:10,0.548,0.831,0.504,1.000,0.741,0.327,0.579,0.539,��쓌,6.7,��
2023/07/28,13:20,0.546,0.831,0.504,1.001,0.742,0.327,0.580,0.539,��쓌,7.0,��
2023/07/28,13:30,0.547,0.830,0.505,1.001,0.743,0.325,0.580,0.540,��,7.0,��
2023/07/28,13:40,0.546,0.832,0.503,0.998,0.742,0.325,0.580,0.539,��,7.0,��
2023/07/28,13:50,0.547,0.833,0.504,0.997,0.742,0.327,0.579,0.538,��쓌,7.2,��
2023/07/28,14:00,0.546,0.831,0.505,1.002,0.744,0.327,0.579,0.538,��쓌,7.7,��
2023/07/28,14:10,0.546,0.832,0.505,1.001,0.742,0.328,0.580,0.539,��쓌,7.5,��
2023/07/28,14:20,0.546,0.830,0.504,1.000,0.741,0.328,0.580,0.539,��쓌,7.9,��
2023/07/28,14:30,0.547,0.828,0.503,1.000,0.743,0.327,0.580,0.540,��쓌,6.8,��
2023/07/28,14:40,0.546,0.831,0.503,1.002,0.741,0.329,0.581,0.540,��쓌,7.6,��
2023/07/28,14:50,0.545,0.830,0.503,1.000,0.743,0.326,0.579,0.539,��쓌,9.8,��
2023/07/28,15:00,0.545,0.829,0.504,1.002,0.743,0.328,0.581,0.540,��쓌,11.6,��
2023/07/28,15:10,0.546,0.829,0.505,1.002,0.741,0.327,0.580,0.538,��쓌,9.8,��
2023/07/28,15:20,0.546,0.830,0.502,1.002,0.742,0.325,0.582,0.538,��쓌,9.9,��
2023/07/28,15:30,0.546,0.829,0.503,1.005,0.741,0.326,0.580,0.537,��쓌,10.2,��
2023/07/28,15:40,0.547,0.830,0.502,1.005,0.744,0.327,0.580,0.537,��쓌,11.3,��
2023/07/28,15:50,0.545,0.829,0.503,1.002,0.742,0.327,0.579,0.537,��쓌,11.3,��
2023/07/28,16:00,0.545,0.832,0.501,1.005,0.743,0.326,0.579,0.537,��쓌,9.6,��
2023/07/28,16:10,0.544,0.832,0.503,1.006,0.744,0.326,0.577,0.536,��쓌,9.3,��
2023/07/28,16:20,0.545,0.832,0.503,1.004,0.743,0.326,0.577,0.537,��,6.7,��
2023/07/28,16:30,0.544,0.830,0.502,1.003,0.742,0.327,0.578,0.537,��,5.2,��
2023/07/28,16:40,0.545,0.831,0.502,1.001,0.742,0.327,0.580,0.536,��,4.5,��
2023/07/28,16:50,0.544,0.828,0.505,1.001,0.742,0.326,0.579,0.537,��,4.9,��
2023/07/28,17:00,0.545,0.832,0.502,1.001,0.743,0.327,0.577,0.537,��,5.5,��
2023/07/28,17:10,0.547,0.832,0.505,1.003,0.741,0.328,0.578,0.536,��,4.8,��
2023/07/28,17:20,0.546,0.831,0.504,1.001,0.742,0.328,0.578,0.539,��,5.3,��
2023/07/28,17:30,0.546,0.831,0.502,1.003,0.742,0.327,0.579,0.538,��,5.3,��
2023/07/28,17:40,0.545,0.830,0.503,1.004,0.741,0.328,0.578,0.538,��쓌,6.1,��
2023/07/28,17:50,0.545,0.830,0.504,1.001,0.742,0.326,0.580,0.538,��,4.0,��
2023/07/28,18:00,0.546,0.828,0.503,1.004,0.742,0.327,0.579,0.536,��,4.7,��
2023/07/28,18:10,0.545,0.830,0.502,1.001,0.741,0.327,0.579,0.539,��,4.5,��
2023/07/28,18:20,0.546,0.831,0.502,1.003,0.740,0.327,0.577,0.537,��,3.1,��
2023/07/28,18:30,0.546,0.830,0.503,1.003,0.740,0.327,0.578,0.538,��,3.3,��
2023/07/28,18:40,0.544,0.831,0.504,1.002,0.742,0.327,0.578,0.539,��,1.7,��
2023/07/28,18:50,0.546,0.832,0.503,1.001,0.740,0.327,0.579,0.536,��쐼,2.8,��
2023/07/28,19:00,0.546,0.830,0.502,1.002,0.743,0.327,0.579,0.537,��쐼,2.5,��
2023/07/28,19:10,0.545,0.831,0.502,1.001,0.741,0.326,0.578,0.538,��쐼,2.2,��
2023/07/28,19:20,0.547,0.830,0.503,1.004,0.742,0.326,0.579,0.538,��쐼,2.6,��
2023/07/28,19:30,0.545,0.831,0.503,1.002,0.743,0.327,0.579,0.539,��쐼,1.7,��
2023/07/28,19:40,0.546,0.829,0.503,1.003,0.741,0.327,0.579,0.539,�쐼,1.5,��
2023/07/28,19:50,0.547,0.829,0.502,1.001,0.740,0.326,0.578,0.539,�쐼,1.5,��
2023/07/28,20:00,0.544,0.828,0.502,1.003,0.742,0.327,0.577,0.538,���쐼,1.2,��
2023/07/28,20:10,0.545,0.829,0.503,1.000,0.741,0.327,0.577,0.538,���쐼,1.5,��
2023/07/28,20:20,0.545,0.829,0.502,1.005,0.741,0.328,0.578,0.537,���k��,1.9,��
2023/07/28,20:30,0.545,0.830,0.502,1.003,0.742,0.326,0.580,0.538,���k��,2.3,��
2023/07/28,20:40,0.545,0.832,0.503,1.004,0.742,0.327,0.578,0.538,�k��,1.7,��
2023/07/28,20:50,0.545,0.830,0.503,1.003,0.741,0.329,0.577,0.538,�k��,3.5,��
2023/07/28,21:00,0.544,0.830,0.503,1.002,0.742,0.328,0.579,0.539,�k��,2.5,��
2023/07/28,21:10,0.545,0.832,0.504,1.004,0.744,0.328,0.578,0.539,�k��,2.3,��
2023/07/28,21:20,0.545,0.830,0.504,1.003,0.744,0.327,0.578,0.540,�k��,2.3,��
2023/07/28,21:30,0.544,0.831,0.505,1.005,0.742,0.328,0.579,0.538,���k��,1.7,��
2023/07/28,21:40,0.546,0.831,0.503,1.002,0.745,0.327,0.586,0.538,���쐼,1.1,��
2023/07/28,21:50,0.546,0.830,0.504,1.002,0.742,0.328,0.580,0.538,�쐼,0.9,��
2023/07/28,22:00,0.545,0.831,0.505,1.004,0.744,0.328,0.580,0.538,��,0.8,��
2023/07/28,22:10,0.546,0.833,0.504,1.003,0.742,0.328,0.582,0.538,��,0.9,��
2023/07/28,22:20,0.545,0.831,0.506,1.005,0.744,0.328,0.578,0.540,��쓌,1.5,��
2023/07/28,22:30,0.546,0.831,0.506,1.003,0.742,0.329,0.579,0.538,��,2.2,��
2023/07/28,22:40,0.546,0.830,0.505,1.005,0.743,0.329,0.581,0.538,��,2.2,��
2023/07/28,22:50,0.545,0.830,0.504,1.003,0.744,0.328,0.580,0.538,��,2.6,��
2023/07/28,23:00,0.546,0.829,0.506,1.005,0.744,0.329,0.581,0.538,��쐼,3.0,��
2023/07/28,23:10,0.547,0.830,0.505,1.003,0.743,0.328,0.579,0.539,��쐼,4.7,��
2023/07/28,23:20,0.547,0.831,0.506,1.004,0.743,0.329,0.581,0.539,��쐼,5.1,��
2023/07/28,23:30,0.546,0.832,0.506,1.003,0.739,0.329,0.579,0.540,��쐼,4.7,��
2023/07/28,23:40,0.546,0.831,0.504,1.005,0.742,0.328,0.579,0.539,��쐼,3.8,��
2023/07/28,23:50,0.545,0.834,0.505,1.006,0.744,0.328,0.580,0.538,��쐼,4.1,��
